EHI
0 0 0 0 0 0 0 0 0 0 0 0 0 0 0 0 0 0 0 0 0 0 0 0 0 0 0 0 0 0 0 0 0 0 0 0 0 0 0 0 0 0 0 0
0 0 0 0 0 0 0 0 0 0 0 0 0 0 0 0 0 0 0 0 0 0 0 0 0 0 0 0 0 0 0 0 0 0 0 0 0 0 0 0 0 0 0 0
0 0 0 0 0 0 0 0 0 0 0 0 0 0 0 0 0 0 0 0 0 0 0 0 0 0 0 0 0 0 0 0 0 0 0 0 0 0 0 0 0 0 0 0
0 0 0 0 0 0 0 0 0 0 0 0 0 0 0 0 0 0 0 0 0 0 0 0 0 0 0 0 0 0 0 0 0 0 0 0 0 0 0 0 0 0 0 0
0 0 0 0 0 0 0 0 0 0 0 0 0 0 0 0 0 0 0 0 0 0 0 0 0 0 0 0 0 0 0 0 0 0 0 0 0 0 0 0 0 0 0 0
0 0 0 0 0 0 0 0 0 0 0 0 0 0 0 0 0 0 0 0 0 0 0 0 0 0 0 0 0 0 0 0 0 0 0 0 0 0 0 0 0 0 0 0
0 0 0 0 0 0 0 0 0 0 0 0 0 0 0 0 0 0 0 0 0 0 0 0 0 0 0 0 0 0 0 0 0 0 0 0 0 0 0 0 0 0 0 0
0 0 0 0 0 0 0 0 0 0 0 0 0 0 0 0 0 0 0 0 0 0 0 0 0 0 0 0 0 0 0 0 0 0 0 0 0 0 0 0 0 0 0 0
0 0 0 0 0 0 0 0 0 0 0 0 0 0 0 0 0 0 0 0 0 0 0 0 0 0 0 0 0 0 0 0 0 0 0 0 0 0 0 0 0 0 0 0
0 0 0 0 0 0 0 0 0 0 0 0 0 0 0 0 0 0 0 0 0 0 0 0 0 0 0 0 0 0 0 0 0 0 0 0 0 0 0 0 0 0 0 0
1 1 0 0 0 0 0 0 0 0 0 0 0 0 0 0 0 0 0 0 0 0 0 0 0 0 0 0 0 0 0 0 0 0 0 0 0 0 0 0 0 0 0 0
1 2 1 0 0 0 0 0 0 0 0 0 0 0 0 0 0 0 0 0 0 0 0 0 0 0 0 0 0 0 0 0 0 0 0 0 0 0 0 0 0 0 0 0
1 1 0 0 0 0 0 0 0 0 0 0 0 0 0 0 0 0 0 0 0 0 0 0 0 0 0 0 0 1 0 0 0 0 0 0 0 0 0 0 0 0 0 0
0 0 0 0 0 0 0 0 0 0 0 0 0 0 0 0 0 0 0 0 0 0 0 0 0 0 0 0 0 0 0 0 0 0 0 0 0 0 0 0 0 0 0 0
0 0 0 0 0 0 0 0 0 0 0 0 0 0 0 0 0 0 0 0 0 0 0 0 0 0 0 0 0 0 0 0 0 0 0 0 0 0 0 0 0 0 0 0
0 0 0 0 0 0 0 0 0 0 0 0 0 0 0 0 0 0 0 0 0 0 0 0 0 0 0 0 0 0 0 0 0 0 0 0 0 0 0 0 0 0 0 0
0 0 0 0 0 0 0 0 0 0 0 0 0 0 0 0 0 0 0 0 0 0 0 0 0 0 0 0 0 0 0 0 0 0 0 0 0 0 0 0 0 0 0 0
0 0 0 0 0 0 0 0 0 0 0 0 0 0 0 0 0 0 0 0 0 0 0 0 0 0 0 0 0 0 0 0 0 0 0 0 0 0 0 0 0 0 0 0
0 0 0 0 0 0 0 0 0 0 0 0 0 0 0 0 0 0 0 0 0 0 0 0 0 0 0 0 0 0 0 0 0 0 0 0 0 0 0 0 0 0 0 0
0 0 0 0 0 0 0 0 0 0 0 0 0 0 0 0 0 0 0 0 0 0 0 0 0 0 0 0 0 0 0 0 0 0 0 0 0 0 0 0 0 0 0 0
0 0 0 0 0 0 0 0 0 0 0 0 0 0 0 0 0 0 0 0 0 0 0 0 0 0 0 0 0 0 0 0 0 0 0 0 0 0 0 0 0 0 0 0
0 0 0 0 0 0 0 0 0 0 0 0 0 0 0 0 0 0 0 0 0 0 0 0 0 0 0 0 0 0 0 0 0 0 0 0 0 0 0 0 0 0 0 0
0 0 0 0 0 0 0 0 0 0 0 0 0 0 0 0 0 0 0 0 0 0 0 0 0 0 0 0 0 0 0 0 0 0 0 0 0 0 0 0 0 0 0 0
0 0 0 0 0 0 0 0 0 0 0 0 0 0 0 0 0 0 0 0 0 0 0 0 0 0 0 0 0 0 0 0 0 0 0 0 0 0 0 0 0 0 0 0
0 0 0 0 0 0 0 0 0 0 0 0 0 0 0 0 0 0 0 0 0 0 0 0 0 0 0 0 0 0 0 0 0 0 0 0 0 0 0 0 0 0 0 0
0 0 0 0 0 0 0 0 0 0 0 0 0 0 0 0 0 0 0 0 0 0 0 0 0 0 0 0 0 0 0 0 0 0 0 0 0 0 0 0 0 0 0 0
0 0 0 0 0 0 0 0 0 0 0 0 0 0 0 0 0 0 0 0 0 0 0 0 0 0 0 0 0 0 0 0 0 0 0 0 0 0 0 0 0 0 0 0
Wind_Speed
8 6 7 8 8 8 10 9 9 6 5 2 3 5 6 7 8 7 7 7 6 5 3 3 3 3 4 5 5 6 7 8 8 8 9 9 10 10 10 10 11 10 11 11
10 8 8 10 10 9 9 9 8 7 5 2 3 4 6 8 8 8 7 7 6 5 4 4 4 4 4 5 5 6 7 8 8 9 9 10 10 10 10 10 10 10 11 11
10 7 9 10 7 7 7 7 7 7 1 5 5 6 7 7 8 7 6 6 6 5 4 3 3 3 4 5 5 6 7 8 8 9 10 10 10 10 10 10 10 11 11 11
9 7 10 2 1 4 6 6 6 4 2 4 4 4 5 6 7 7 6 6 6 5 4 4 3 4 4 5 6 7 7 8 8 9 10 10 10 10 10 9 10 10 10 11
7 9 8 5 5 5 6 7 6 6 4 4 4 5 7 8 8 7 6 6 5 4 4 3 3 4 4 6 6 7 8 8 8 9 10 10 11 11 10 10 10 10 10 11
7 8 8 1 4 3 5 7 4 6 6 6 7 7 2 7 8 8 7 6 5 5 4 4 4 4 5 6 7 7 8 8 9 9 10 11 11 11 10 10 10 11 10 10
9 9 7 3 5 6 6 3 3 4 5 7 8 5 2 6 7 8 8 7 6 6 5 4 4 4 6 7 7 7 8 8 9 9 10 10 10 10 10 10 10 11 11 11
6 8 3 6 4 4 5 4 1 3 5 7 8 7 5 6 7 7 8 8 8 6 6 5 5 5 6 7 7 7 8 9 9 9 10 9 9 10 10 10 10 10 10 10
4 3 4 1 3 4 6 6 5 5 6 7 9 8 8 8 8 8 8 7 7 7 6 5 5 6 7 7 6 7 8 9 9 10 9 9 9 10 10 9 8 8 8 8
5 4 3 3 4 6 7 8 8 7 7 7 8 8 8 7 7 7 7 7 6 7 6 6 5 6 7 7 6 7 9 9 9 9 9 8 7 8 8 8 8 8 8 8
8 6 5 2 8 10 9 8 7 6 5 5 6 6 6 5 6 5 5 5 5 6 6 5 5 6 7 7 7 8 9 9 9 9 8 8 8 7 9 8 7 9 10 9
5 7 8 8 10 11 9 8 6 4 3 2 2 3 3 3 3 3 4 5 5 6 6 6 6 7 7 7 7 8 9 9 8 8 7 8 8 8 7 10 9 11 13 12
6 7 6 7 8 10 8 7 7 5 4 4 3 3 2 1 1 2 3 4 5 5 5 6 7 8 8 7 8 9 10 9 8 8 8 8 8 9 9 7 10 14 14 14
4 2 4 7 8 9 9 8 8 8 8 7 6 5 3 3 2 1 2 3 4 4 6 7 8 8 8 8 8 10 10 9 8 8 8 8 8 8 8 9 9 7 7 12
8 7 7 8 9 10 10 10 10 10 9 8 8 7 6 5 4 3 3 3 4 6 7 8 8 8 7 8 9 10 10 8 7 8 8 8 8 8 8 9 8 8 7 3
8 9 9 10 11 11 12 12 11 11 10 10 9 8 7 6 5 5 5 5 6 7 7 8 9 9 8 8 9 9 9 9 8 9 9 9 8 8 8 8 8 7 6 6
8 9 10 10 10 11 10 10 9 9 9 9 9 8 8 7 7 7 7 7 7 8 8 8 8 9 8 8 9 8 8 7 9 9 10 8 8 8 7 7 8 7 6 4
10 9 8 8 8 8 9 10 10 10 9 9 9 9 9 8 9 9 9 9 9 8 7 8 9 10 9 8 8 8 8 8 7 8 8 7 8 8 7 7 8 8 6 3
8 8 7 7 8 8 8 9 9 8 8 9 9 8 8 8 9 9 9 10 10 9 9 10 9 10 10 8 7 8 9 9 9 8 7 7 8 8 7 7 7 7 6 5
6 6 7 7 8 8 8 7 8 8 8 9 9 9 9 9 9 10 10 10 8 9 11 12 12 10 9 7 6 9 9 9 9 8 7 7 7 7 7 6 6 7 6 5
6 7 8 8 8 8 8 8 8 8 8 8 8 8 9 9 10 10 10 10 9 10 12 11 10 8 8 7 7 10 9 8 8 8 8 7 7 7 6 5 5 5 5 5
6 7 9 9 9 9 8 8 8 8 8 8 9 9 9 10 11 10 10 8 10 9 11 11 10 9 9 10 9 9 9 8 7 7 7 7 6 6 6 5 5 4 4 4
7 8 9 9 10 10 10 9 9 8 8 9 9 10 10 10 10 10 11 9 11 11 12 11 9 9 10 11 9 9 8 8 7 7 6 6 5 5 5 5 4 4 4 3
8 9 9 10 10 11 10 10 9 8 9 10 10 9 10 10 9 9 10 10 9 10 12 9 8 9 11 10 9 8 7 7 6 6 6 5 5 4 4 4 4 4 4 4
9 10 11 11 11 10 9 10 10 10 10 9 10 10 10 9 9 10 10 12 11 10 11 9 8 9 10 9 8 7 6 5 4 5 5 4 4 4 4 4 4 4 4 4
10 10 10 10 10 10 10 9 9 9 9 9 9 9 10 9 10 10 9 11 13 10 10 9 9 9 8 8 7 6 5 4 3 4 4 4 4 4 4 4 5 4 4 4
11 11 9 10 10 9 9 9 9 10 10 10 10 10 11 11 11 10 11 10 10 9 9 8 8 7 7 7 6 5 4 4 4 4 3 3 3 3 3 4 4 4 3 3
Wind_Direction
277 283 273 273 271 249 247 271 285 295 292 289 190 194 181 177 176 180 184 190 195 209 215 234 252 268 280 290 295 300 298 299 302 304 302 299 299 297 295 292 289 288 287 285
265 261 262 265 265 257 249 254 263 273 276 81 131 163 174 184 189 195 198 202 203 210 224 240 260 277 289 291 296 294 293 298 303 302 302 302 301 299 297 294 292 289 286 285
268 264 260 258 257 252 239 236 254 270 325 135 174 190 195 195 202 211 210 207 209 217 228 244 263 277 280 285 289 292 294 297 300 302 303 304 304 303 300 298 294 291 288 286
263 259 258 291 83 269 260 248 239 257 213 186 197 193 197 202 208 212 212 209 208 219 223 233 245 255 268 284 288 292 295 298 302 303 303 305 303 300 299 296 294 291 289 289
258 253 253 239 195 220 239 251 228 231 213 182 165 193 206 200 208 214 211 206 209 220 230 236 256 263 273 282 290 294 297 301 304 305 303 303 301 302 300 296 292 291 289 290
243 264 268 300 109 171 244 248 197 204 209 188 185 241 205 162 190 203 204 199 205 211 220 229 247 260 268 281 291 297 303 305 304 300 299 299 299 300 298 294 289 290 292 292
245 253 262 58 123 185 240 347 96 202 213 205 212 255 88 155 179 193 199 200 203 215 225 234 241 249 265 282 292 300 303 302 298 298 296 292 293 293 292 290 291 290 291 288
244 251 273 94 166 235 353 21 287 241 229 223 224 221 195 185 186 194 200 205 204 210 223 226 229 242 262 277 291 296 295 293 294 296 297 299 296 293 292 291 289 287 286 288
282 316 45 355 290 326 336 308 296 277 259 235 232 227 218 210 206 206 209 210 211 215 222 226 227 241 261 276 286 288 289 290 293 295 295 292 292 294 292 288 288 293 296 297
268 266 325 330 333 328 316 303 296 285 271 246 237 234 229 221 215 214 214 211 209 216 225 231 236 243 255 268 274 277 281 286 288 290 291 294 293 290 292 296 296 299 300 299
263 294 306 14 9 349 334 322 311 301 282 261 248 240 230 221 218 215 208 205 206 217 228 241 248 252 255 260 263 270 277 281 285 286 292 295 288 286 288 292 298 296 301 302
320 9 333 345 357 350 346 348 347 339 331 315 277 267 259 241 226 217 208 200 205 218 231 239 243 250 254 253 252 261 270 275 283 289 297 294 295 293 257 248 257 250 252 265
322 330 339 346 358 3 5 11 18 24 25 25 31 17 359 327 292 249 221 216 224 230 243 250 252 255 256 252 249 253 265 277 285 290 294 293 296 300 302 281 238 236 239 242
352 347 34 26 23 22 23 29 40 46 43 38 34 28 20 9 345 300 278 262 252 253 258 260 260 262 264 256 248 252 261 267 264 275 282 287 292 295 294 297 301 295 245 227
57 63 65 53 43 39 35 36 40 39 35 32 31 23 15 1 346 336 324 305 288 278 275 273 269 270 268 257 251 254 262 269 274 284 283 283 285 287 289 292 294 300 304 263
84 75 65 54 44 37 35 33 33 29 26 23 20 12 2 350 341 340 335 330 310 298 296 292 285 281 273 259 253 253 254 252 258 276 279 281 281 286 293 295 295 299 307 309
77 62 51 44 39 32 28 26 22 18 15 12 7 3 358 351 349 350 344 336 319 307 305 304 302 299 283 265 259 262 266 256 223 251 267 276 284 288 293 296 296 301 305 319
69 58 44 31 21 17 14 12 10 7 3 357 354 355 352 349 345 341 337 331 324 316 320 322 324 309 289 273 265 270 270 271 271 272 278 281 287 288 288 289 292 297 301 288
56 45 33 22 10 3 0 358 355 353 351 348 346 345 344 343 341 336 334 327 321 320 332 330 322 299 292 283 273 263 267 272 272 271 273 272 267 273 282 286 293 298 299 308
38 24 11 2 357 349 341 340 339 340 342 341 338 338 339 341 339 335 331 321 332 340 333 328 314 301 297 295 282 274 269 269 273 276 276 277 279 284 285 289 296 297 303 313
9 1 355 348 340 334 331 329 326 326 329 330 329 329 331 331 331 331 326 323 337 345 331 314 299 305 311 323 286 276 274 272 274 275 277 279 283 288 292 296 295 298 309 319
348 344 339 334 330 327 325 317 311 311 314 316 319 323 324 324 324 322 319 322 328 348 327 316 317 342 335 310 285 277 273 272 271 273 276 284 290 296 298 300 298 301 309 318
325 325 323 323 321 317 311 306 304 306 310 313 313 315 319 319 315 313 314 330 329 338 319 316 336 330 311 291 283 279 277 273 273 275 277 280 283 287 294 301 304 309 315 312
309 310 310 310 307 301 300 304 306 303 300 297 298 304 306 303 306 313 320 324 325 322 312 319 314 303 291 284 282 279 277 274 274 280 287 292 299 301 304 310 311 317 322 315
301 301 299 299 294 294 298 294 289 287 287 292 298 301 302 307 310 314 315 316 319 313 315 318 308 298 292 294 293 288 282 290 302 300 292 301 307 310 319 325 331 332 328 327
293 290 294 293 293 291 288 289 293 297 297 299 301 305 307 307 307 307 307 313 319 321 316 319 321 313 311 312 309 304 303 296 279 276 296 306 312 321 328 331 327 322 320 335
283 280 274 274 278 280 285 289 291 293 297 299 303 306 305 304 305 306 309 312 314 318 320 321 324 326 329 328 327 326 320 316 312 309 310 315 325 329 334 333 328 329 332 350